Flag for Taiwan Weather past 2 weeks in Taichung, Taiwan

Now
63 °F

Light rain. Fog.


Feels Like: 63 °F
Forecast: 64 / 69 °F
Wind: 13 mph from Northeast

Location: Chiang Kai Shek

Current Time: Jan 26, 2015 at 8:51:29 PM

Latest Report: Jan 26, 2015 at 8:30 PM


Visibility: 2 mi

Pressure: 30.09 "Hg

Humidity: 94%

Dew point: 61 °F

Location of TaichungLocation

Historic Weather in Taichung — Graph

°F

Taichung temperature yesterday

Maximum temperature yesterday: 72 °F (at 2:00 PM)
Minimum temperature yesterday: 55 °F (at 5:30 AM)
Average temperature yesterday: 63 °F

Past Weeks' High & Low Weather Summary

 TemperatureHumidityPressure
High79 °F (Jan 13, 11:00 AM)94% (Jan 13, 11:56 PM)30.36 "Hg (Jan 13, 11:56 PM)
Low46 °F (Jan 24, 6:30 AM)35% (Jan 23, 11:30 AM)29.95 "Hg (Jan 13, 1:00 PM)
Average62 °F66%30.16 "Hg
* Reported Jan 11 7:00 PM — Jan 26 7:30 PM, Taichung, Weather by CustomWeather, © 2014

Note: Actual official high and low records may vary slightly from our data, if they occured in-between our weather recording intervals... More about our weather records

Advertising

Taichung weather history for previous 24 hours

 ConditionsComfort  
Time TempWeatherWind HumidityBarometerVisibility
7:30 PM
Jan 26
63 °FLight rain. Fog.10 mph94%30.09 "Hg2 mi
7:00 PM63 °FLight rain. Passing clouds.9 mph94%30.09 "Hg3 mi
6:30 PM64 °FLight rain. Passing clouds.8 mph88%30.09 "Hg4 mi
6:00 PM64 °FPassing clouds.8 mph83%30.09 "Hg4 mi
5:30 PM64 °FPartly sunny.7 mph83%30.07 "Hg5 mi
5:00 PM64 °FBroken clouds.7 mph83%30.07 "Hg6 mi
4:30 PM64 °FBroken clouds.8 mph83%30.07 "Hg6 mi
4:00 PM66 °FBroken clouds.9 mph78%30.07 "HgN/A
3:30 PM66 °FPartly sunny.10 mph73%30.04 "HgN/A
3:00 PM68 °FPartly sunny.12 mph64%30.04 "HgN/A
2:30 PM68 °FPartly sunny.12 mph60%30.07 "HgN/A
2:00 PM70 °FPartly sunny.12 mph60%30.07 "HgN/A
1:30 PM66 °FPartly sunny.12 mph68%30.07 "HgN/A
1:00 PM64 °FPartly sunny.12 mph78%30.09 "Hg6 mi
12:30 PM64 °FPartly sunny.12 mph78%30.09 "Hg6 mi
12:00 PM64 °FPartly sunny.12 mph78%30.12 "Hg6 mi
11:30 AM64 °FPartly sunny.10 mph78%30.12 "Hg6 mi
10:46 AM66 °FBroken clouds.9 mph78%30.15 "Hg5 mi
10:30 AM64 °FLight rain. Broken clouds.8 mph83%30.15 "Hg4 mi
10:00 AM64 °FBroken clouds.7 mph78%30.15 "Hg4 mi
9:30 AM64 °FBroken clouds.7 mph83%30.15 "Hg4 mi
9:00 AM64 °FBroken clouds.8 mph83%30.15 "Hg4 mi
8:30 AM64 °FBroken clouds.6 mph78%30.15 "Hg4 mi
8:00 AM63 °FMostly cloudy.5 mph83%30.15 "Hg4 mi
7:30 AM61 °FFog.5 mph88%30.15 "Hg3 mi
7:00 AM61 °FFog.3 mph88%30.12 "Hg3 mi
6:30 AM61 °FFog.3 mph88%30.12 "Hg3 mi
6:00 AM61 °FFog.3 mph88%30.12 "Hg3 mi
5:30 AM61 °FFog.3 mph88%30.12 "Hg3 mi
5:00 AM61 °FFog.1 mph88%30.12 "Hg3 mi
4:30 AM61 °FFog.2 mph88%30.12 "Hg3 mi
4:00 AM61 °FFog.3 mph88%30.12 "Hg3 mi
3:30 AM61 °FFog.6 mph88%30.12 "Hg3 mi
3:00 AM61 °FFog.2 mph88%30.12 "Hg3 mi
2:30 AM61 °FPassing clouds.2 mph88%30.12 "Hg4 mi
2:00 AM61 °FPartly cloudy.1 mph88%30.12 "Hg4 mi
1:30 AM61 °FPartly cloudy.3 mph88%30.12 "HgN/A
1:00 AM61 °FPartly cloudy.3 mph88%30.12 "HgN/A
12:30 AM61 °FPassing clouds.5 mph88%30.12 "HgN/A
12:00 AM61 °FPassing clouds.5 mph94%30.12 "HgN/A
11:30 PM
Jan 25
61 °FPartly cloudy.3 mph94%30.12 "HgN/A
11:00 PM61 °FPartly cloudy.3 mph94%30.12 "HgN/A
10:30 PM61 °FPartly cloudy.3 mph88%30.15 "HgN/A
10:00 PM61 °FPartly cloudy.3 mph88%30.12 "HgN/A
9:30 PM63 °FLight rain. Partly cloudy.3 mph88%30.12 "Hg4 mi
9:00 PM63 °FPartly cloudy.3 mph88%30.12 "Hg5 mi
8:30 PM63 °FPartly cloudy.6 mph88%30.12 "Hg4 mi
8:00 PM63 °FPartly cloudy.3 mph88%30.12 "Hg4 mi
Weather by CustomWeather, © 2014

See weather overviewHow to use our weather pages